GPS BIIF-1 (PRN 25)

Last updated on Tue Oct 21 2025 00:03:21 GMT+0000 (Coordinated Universal Time)

1 36585U 10022A 25293.38466390 -.00000023 00000+0 00000+0 0 9996 2 36585 54.3123 218.2244 0123485 64.4943 116.3625 2.00550418112781
UTC large
Height (km)
Speed (km/s)
/
Latitude / Longitude
Inclination (degrees)
Orbital Period (minutes)
Azimuth
Elevation
Range (km)
Doppler Factor

Next 0 passes for location: London (51.5072 / 0.1276)

Sorry there are no passes over London.